Weather observations for the past three days for
Worcester, Worcester Regional Airport
Imperial (Metric)
Date Time (edt) Wind (mph) Vis. (mi.) Weather Sky Cond. Temperature (ºF) Relative Humidity Wind Chill (°F) Heat Index (°F) Pressure Precipitation (in)
Air Dwpt 6 hour altimeter (in) sea level (mb) 1 hr 3 hr 6 hr
Max. Min.
13 01:54 W 8 10.00 Fair CLR 55.9 51.1 70 55.9 84% 30 1015.6
13 00:54 NW 9 10.00 Fair CLR 61 52 72% 30.01 1015.8
12 23:54 W 8 10.00 Fair CLR 61 53.1 75% 30.02 1016.2
12 22:54 W 7 10.00 Fair CLR 63 53.1 70% 30.02 1016.3
12 21:54 W 8 10.00 Fair CLR 66 53.1 63% 30 1015.7
12 20:54 W 7 10.00 Fair CLR 66.9 53.1 61% 29.98 1014.9
12 19:54 W 6 10.00 Fair CLR 70 53.1 75.9 70 55% 29.97 1014.6
12 18:54 W 7 10.00 Fair CLR 73 53.1 50% 29.97 1014.4
12 17:54 W 8 10.00 Fair CLR 75 53.1 46% 78 29.96 1014.2
12 16:54 W 7 10.00 A Few Clouds FEW050 75 52 45% 78 29.97 1014.4
12 15:54 Vrbl 5 10.00 A Few Clouds FEW049 75 52 45% 78 29.97 1014.6
12 14:54 Vrbl 7 G 17 10.00 Partly Cloudy FEW047 SCT080 75.9 52 43% 78 29.98 1014.9
12 13:54 W 9 10.00 Mostly Cloudy FEW044 BKN080 73.9 52 73.9 63 46% 29.99 1015.2
12 12:54 W 3 10.00 Mostly Cloudy FEW041 BKN070 72 53.1 52% 30.01 1015.9
12 11:54 W 8 10.00 Mostly Cloudy FEW034 BKN075 72 52 50% 30.01 1016.1
12 09:54 W 7 10.00 Partly Cloudy SCT026 68 55 63% 30.02 1016.3
12 08:54 W 5 10.00 A Few Clouds FEW065 66.9 54 63% 30.02 1016.4
12 07:54 W 5 10.00 Partly Cloudy SCT065 63 55.9 63 57.9 78% 30.01 1016.0
12 06:54 Calm 10.00 Partly Cloudy SCT065 60.1 55 84% 30 1015.8
12 05:54 N 5 10.00 Partly Cloudy SCT065 61 53.1 75% 30 1015.5
12 04:54 N 5 10.00 Fair CLR 60.1 53.1 78% 29.99 1015.3
12 03:54 NW 7 10.00 Mostly Cloudy BKN065 BKN080 57.9 52 81% 29.99 1015.4
12 02:54 NW 5 10.00 A Few Clouds FEW075 59 53.1 81% 29.99 1015.3
12 01:54 NW 7 10.00 Fair CLR 59 53.1 66 59 81% 29.99 1015.3
12 00:54 NW 8 10.00 Overcast OVC085 60.1 53.1 78% 29.99 1015.5
11 23:54 W 5 10.00 Mostly Cloudy BKN080 60.1 54 80% 29.99 1015.5
11 22:54 W 5 10.00 Mostly Cloudy BKN055 59 54 83% 29.98 1015.1
11 21:54 NW 5 10.00 Partly Cloudy SCT055 60.1 54 80% 29.98 1015.1
11 20:54 SE 3 10.00 Overcast FEW038 OVC050 64 54 70% 29.96 1014.5
11 19:54 N 5 10.00 Overcast OVC038 66 53.1 70 66 63% 29.96 1014.4
11 18:54 NW 7 10.00 Overcast BKN036 OVC046 68 51.1 55% 29.94 1013.8
11 17:54 N 8 10.00 Overcast SCT044 OVC070 68 52 57% 29.93 1013.5
11 16:54 N 6 10.00 Overcast FEW037 OVC065 69.1 51.1 53% 29.93 1013.3
11 15:54 NW 3 10.00 Overcast SCT038 OVC060 68 51.1 55% 29.93 1013.4
11 14:54 NW 6 10.00 Fair CLR 70 51.1 51% 29.92 1013.2
11 13:54 W 7 10.00 Mostly Cloudy FEW034 BKN055 66.9 48.9 69.1 59 53% 29.93 1013.5
11 12:54 W 7 10.00 Overcast SCT033 OVC047 66 50 56% 29.93 1013.4
11 11:54 W 7 10.00 Overcast BKN037 OVC044 64.9 50 59% 29.92 1013.2
11 10:54 NW 9 10.00 Mostly Cloudy BKN028 BKN042 64.9 48.9 56% 29.92 1012.9
11 09:54 NW 8 10.00 Mostly Cloudy BKN024 63 50 63% 29.91 1012.8
11 08:54 W 9 10.00 A Few Clouds FEW043 62.1 50 65% 29.91 1012.7
11 07:54 N 10 G 17 10.00 Overcast OVC041 59 50 59 52 72% 29.89 1012.1
11 06:54 W 5 10.00 Fair CLR 57 50 78% 29.87 1011.5
11 05:54 W 8 10.00 A Few Clouds FEW037 54 48.9 83% 29.85 1010.8
11 04:54 W 5 10.00 Mostly Cloudy BKN050 54 48.9 83% 29.84 1010.5
11 03:54 W 6 10.00 Overcast OVC055 53.1 48.9 86% 29.82 1009.8
11 02:54 W 9 10.00 Fair CLR 54 48.9 83% 29.81 1009.2
11 01:54 W 9 10.00 Fair CLR 55 48.9 63 55 80% 29.81 1009.3
11 00:54 W 5 10.00 Fair CLR 55.9 48.9 77% 29.8 1009.1
10 23:54 W 8 10.00 Fair CLR 57 48.9 74% 29.78 1008.4
10 22:54 W 12 10.00 Fair CLR 59 48.9 69% 29.76 1007.6
10 21:54 W 15 10.00 Fair CLR 60.1 48.9 67% 29.74 1006.9
10 20:54 W 10 10.00 Fair CLR 60.1 48.9 67% 29.72 1006.2
10 19:54 W 12 10.00 Fair CLR 63 48.9 71.1 63 60% 29.7 1005.8
10 18:54 NW 17 G 25 10.00 Fair CLR 66 48.9 54% 29.68 1005.1
10 17:54 W 20 G 31 10.00 Partly Cloudy SCT070 68 48.9 51% 29.66 1004.4
10 16:54 W 14 10.00 A Few Clouds FEW070 68 48.9 51% 29.65 1003.9
10 15:54 W 10 G 21 10.00 Mostly Cloudy BKN065 69.1 48 47% 29.63 1003.3
10 14:54 W 16 10.00 Partly Cloudy SCT046 SCT060 69.1 48 47% 29.62 1003.0
10 13:54 W 16 G 21 10.00 Partly Cloudy SCT046 SCT055 70 48 71.1 57.9 46% 29.61 1002.5
10 12:54 NW 12 10.00 Partly Cloudy SCT044 68 48 49% 29.6 1002.3
10 11:54 NW 16 10.00 Partly Cloudy SCT038 69.1 48.9 49% 29.6 1002.0
10 10:54 W 8 G 17 10.00 A Few Clouds FEW032 66 48.9 54% 29.6 1002.3
10 09:54 NW 12 G 20 10.00 Fair CLR 64 48 56% 29.6 1002.1
10 08:54 W 15 10.00 Fair CLR 61 48 63% 29.59 1001.9
10 07:54 W 15 G 22 10.00 Fair CLR 57.9 48 57.9 52 70% 29.59 1001.8
10 06:54 W 13 10.00 Fair CLR 55 48.9 80% 29.58 1001.6
10 05:54 W 9 10.00 Fair CLR 53.1 48 83% 29.58 1001.4
10 04:54 W 8 10.00 Fair CLR 53.1 48 83% 29.57 1001.1
10 03:54 W 10 10.00 A Few Clouds FEW075 54 48.9 83% 29.56 1000.7
Date Time (edt) Wind (mph) Vis. (mi.) Weather Sky Cond. Air Dwpt Max. Min. Relative Humidity Wind Chill (°F) Heat Index (°F) altimeter (in) sea level (mb) 1 hr 3 hr 6 hr
6 hour
Temperature (ºF) Pressure Precipitation (in)